******** Week 357 almanac for PRN-1 ******** ID: 1 Health: 0 Eccentricity: 0.001509189606 Time of Applicability(s): 503808 Orbital Inclination(rad): 0.9584108231 Rate of Right Ascen(r/s): -7.943188008e-09 SQRT(A) (m 1/2): 5153.580566 Right Ascen at Week(rad): -2.772719336 Argument of Perigee(rad): 0.04647145364 Mean Anom(rad): 1.640760232 Af0(s): 0.0002630323364 Af1(s/s): -3.637979e-12 week: 357 ******** Week 357 almanac for PRN-2 ******** ID: 2 Health: 0 Eccentricity: 0.01695108414 Time of Applicability(s): 503808 Orbital Inclination(rad): 0.9638037243 Rate of Right Ascen(r/s): -7.771752296e-09 SQRT(A) (m 1/2): 5153.556152 Right Ascen at Week(rad): -2.935255761 Argument of Perigee(rad): -0.8253857772 Mean Anom(rad): 3.074179892 Af0(s): 3.014697266e-05 Af1(s/s): 7.275958e-12 week: 357 ******** Week 357 almanac for PRN-3 ******** ID: 3 Health: 0 Eccentricity: 0.006422996521 Time of Applicability(s): 503808 Orbital Inclination(rad): 0.9928594776 Rate of Right Ascen(r/s): -7.886042771e-09 SQRT(A) (m 1/2): 5153.590332 Right Ascen at Week(rad): -1.786179814 Argument of Perigee(rad): 1.205259491 Mean Anom(rad): -0.5317602826 Af0(s): 0.0004506972412 Af1(s/s): -1.091394e-11 week: 357 ******** Week 357 almanac for PRN-4 ******** ID: 4 Health: 0 Eccentricity: 0.003738880157 Time of Applicability(s): 503808 Orbital Inclination(rad): 0.9705628271 Rate of Right Ascen(r/s): -7.691748963e-09 SQRT(A) (m 1/2): 5153.698242 Right Ascen at Week(rad): -0.7150159343 Argument of Perigee(rad): -2.888829997 Mean Anom(rad): 2.476227364 Af0(s): 3.466901855e-05 Af1(s/s): 3.637979e-12 week: 357 ******** Week 357 almanac for PRN-5 ******** ID: 5 Health: 0 Eccentricity: 0.005380153656 Time of Applicability(s): 503808 Orbital Inclination(rad): 0.9794371457 Rate of Right Ascen(r/s): -8.023191341e-09 SQRT(A) (m 1/2): 5153.646484 Right Ascen at Week(rad): -1.845725682 Argument of Perigee(rad): 1.420456473 Mean Anom(rad): 3.122387934 Af0(s): -0.0001808818359 Af1(s/s): 0 week: 357 ******** Week 357 almanac for PRN-6 ******** ID: 6 Health: 0 Eccentricity: 0.003872871399 Time of Applicability(s): 503808 Orbital Inclination(rad): 0.9873347499 Rate of Right Ascen(r/s): -7.623174678e-09 SQRT(A) (m 1/2): 5153.584473 Right Ascen at Week(rad): -2.822656852 Argument of Perigee(rad): -0.5877588206 Mean Anom(rad): 0.8127656393 Af0(s): -0.0004823515625 Af1(s/s): -3.637979e-12 week: 357 ******** Week 357 almanac for PRN-7 ******** ID: 7 Health: 0 Eccentricity: 0.02035856247 Time of Applicability(s): 503808 Orbital Inclination(rad): 0.951268225 Rate of Right Ascen(r/s): -7.703178011e-09 SQRT(A) (m 1/2): 5153.577148 Right Ascen at Week(rad): 0.2934468547 Argument of Perigee(rad): -1.997520871 Mean Anom(rad): -0.06950063983 Af0(s): -0.0001175731934 Af1(s/s): -3.637979e-12 week: 357 ******** Week 357 almanac for PRN-8 ******** ID: 8 Health: 0 Eccentricity: 0.01153421402 Time of Applicability(s): 503808 Orbital Inclination(rad): 0.9436762186 Rate of Right Ascen(r/s): -7.851755628e-09 SQRT(A) (m 1/2): 5153.626465 Right Ascen at Week(rad): 2.341397718 Argument of Perigee(rad): 0.5150018421 Mean Anom(rad): 2.768023392 Af0(s): 0.0003888959473 Af1(s/s): -3.637979e-12 week: 357 ******** Week 357 almanac for PRN-9 ******** ID: 9 Health: 0 Eccentricity: 0.003383636475 Time of Applicability(s): 503808 Orbital Inclination(rad): 0.9646665885 Rate of Right Ascen(r/s): -7.783181343e-09 SQRT(A) (m 1/2): 5153.744141 Right Ascen at Week(rad): -0.7791416493 Argument of Perigee(rad): 2.075153182 Mean Anom(rad): -2.924052757 Af0(s): 0.0006082151733 Af1(s/s): 0 week: 357 ******** Week 357 almanac for PRN-10 ******** ID: 10 Health: 0 Eccentricity: 0.01095867157 Time of Applicability(s): 503808 Orbital Inclination(rad): 0.992404077 Rate of Right Ascen(r/s): -7.886042771e-09 SQRT(A) (m 1/2): 5153.604004 Right Ascen at Week(rad): -1.788690883 Argument of Perigee(rad): -2.258365016 Mean Anom(rad): -1.514180976 Af0(s): -0.0004650170532 Af1(s/s): 0 week: 357 ******** Week 357 almanac for PRN-11 ******** ID: 11 Health: 0 Eccentricity: 0.0022149086 Time of Applicability(s): 503808 Orbital Inclination(rad): 0.9641932116 Rate of Right Ascen(r/s): -7.874613723e-09 SQRT(A) (m 1/2): 5153.52002 Right Ascen at Week(rad): -2.803492953 Argument of Perigee(rad): -2.292056043 Mean Anom(rad): 1.85696726 Af0(s): -0.0003474438599 Af1(s/s): 1.455192e-11 week: 357 ******** Week 357 almanac for PRN-12 ******** ID: 12 Health: 0 Eccentricity: 0.009058475494 Time of Applicability(s): 503808 Orbital Inclination(rad): 0.9588003104 Rate of Right Ascen(r/s): -7.897471818e-09 SQRT(A) (m 1/2): 5153.72168 Right Ascen at Week(rad): 1.411185551 Argument of Perigee(rad): 1.553691468 Mean Anom(rad): -0.7089650243 Af0(s): -0.0004800905395 Af1(s/s): 0 week: 357 ******** Week 357 almanac for PRN-13 ******** ID: 13 Health: 0 Eccentricity: 0.00995016098 Time of Applicability(s): 503808 Orbital Inclination(rad): 0.9762733103 Rate of Right Ascen(r/s): -7.577458489e-09 SQRT(A) (m 1/2): 5153.631836 Right Ascen at Week(rad): -0.6042783256 Argument of Perigee(rad): 0.998472065 Mean Anom(rad): 2.50952778 Af0(s): 0.0005426455078 Af1(s/s): 0 week: 357 ******** Week 357 almanac for PRN-14 ******** ID: 14 Health: 0 Eccentricity: 0.006626605988 Time of Applicability(s): 503808 Orbital Inclination(rad): 0.9421662062 Rate of Right Ascen(r/s): -8.091765626e-09 SQRT(A) (m 1/2): 5153.583984 Right Ascen at Week(rad): 1.356795147 Argument of Perigee(rad): -2.75718441 Mean Anom(rad): -0.8833343732 Af0(s): 0.0005803292236 Af1(s/s): 3.637979e-12 week: 357 ******** Week 357 almanac for PRN-15 ******** ID: 15 Health: 0 Eccentricity: 0.01659679413 Time of Applicability(s): 503808 Orbital Inclination(rad): 0.9424478355 Rate of Right Ascen(r/s): -8.057478483e-09 SQRT(A) (m 1/2): 5153.638672 Right Ascen at Week(rad): -0.9227789515 Argument of Perigee(rad): 1.498632943 Mean Anom(rad): 1.766148182 Af0(s): 0.0003044844238 Af1(s/s): 3.637979e-12 week: 357 ******** Week 357 almanac for PRN-16 ******** ID: 16 Health: 0 Eccentricity: 0.01506328583 Time of Applicability(s): 503808 Orbital Inclination(rad): 0.9579314541 Rate of Right Ascen(r/s): -7.920329913e-09 SQRT(A) (m 1/2): 5153.57666 Right Ascen at Week(rad): 1.428197908 Argument of Perigee(rad): 0.9272722868 Mean Anom(rad): -2.499813442 Af0(s): 0.0001635473267 Af1(s/s): 7.275958e-12 week: 357 ******** Week 357 almanac for PRN-17 ******** ID: 17 Health: 0 Eccentricity: 0.01271915436 Time of Applicability(s): 503808 Orbital Inclination(rad): 0.9594414664 Rate of Right Ascen(r/s): -7.726036106e-09 SQRT(A) (m 1/2): 5153.533203 Right Ascen at Week(rad): 2.445821888 Argument of Perigee(rad): -1.12574341 Mean Anom(rad): 2.680639293 Af0(s): -4.898883057e-05 Af1(s/s): -1.091394e-11 week: 357 ******** Week 357 almanac for PRN-18 ******** ID: 18 Health: 0 Eccentricity: 0.005714416504 Time of Applicability(s): 503808 Orbital Inclination(rad): 0.9723005398 Rate of Right Ascen(r/s): -7.771752296e-09 SQRT(A) (m 1/2): 5153.597656 Right Ascen at Week(rad): -2.827446797 Argument of Perigee(rad): -2.861684229 Mean Anom(rad): 0.6973249713 Af0(s): -0.0003368924194 Af1(s/s): 1.091394e-11 week: 357 ******** Week 357 almanac for PRN-19 ******** ID: 19 Health: 0 Eccentricity: 0.0110578537 Time of Applicability(s): 503808 Orbital Inclination(rad): 0.9586564997 Rate of Right Ascen(r/s): -7.691748963e-09 SQRT(A) (m 1/2): 5153.66748 Right Ascen at Week(rad): 2.489718231 Argument of Perigee(rad): 2.925265037 Mean Anom(rad): -1.767853312 Af0(s): 0.0005449065308 Af1(s/s): 0 week: 357 ******** Week 357 almanac for PRN-20 ******** ID: 20 Health: 255 Eccentricity: 0.0003008842468 Time of Applicability(s): 503808 Orbital Inclination(rad): 0.9600946067 Rate of Right Ascen(r/s): -7.817468486e-09 SQRT(A) (m 1/2): 5153.647949 Right Ascen at Week(rad): -0.773448019 Argument of Perigee(rad): 1.437838468 Mean Anom(rad): 2.094284499 Af0(s): 0 Af1(s/s): 0 week: 357 ******** Week 357 almanac for PRN-21 ******** ID: 21 Health: 0 Eccentricity: 0.0006704330444 Time of Applicability(s): 503808 Orbital Inclination(rad): 0.9622817277 Rate of Right Ascen(r/s): -8.194627053e-09 SQRT(A) (m 1/2): 5153.702637 Right Ascen at Week(rad): -1.779415093 Argument of Perigee(rad): -0.3978777651 Mean Anom(rad): -0.9394145537 Af0(s): 0.0003142821899 Af1(s/s): 7.275958e-12 week: 357 ******** Week 357 almanac for PRN-22 ******** ID: 22 Health: 0 Eccentricity: 0.01213598251 Time of Applicability(s): 503808 Orbital Inclination(rad): 0.9573681955 Rate of Right Ascen(r/s): -7.931758961e-09 SQRT(A) (m 1/2): 5153.563965 Right Ascen at Week(rad): 1.431544877 Argument of Perigee(rad): -0.9942936901 Mean Anom(rad): -2.952810028 Af0(s): -3.69300415e-05 Af1(s/s): 3.637979e-12 week: 357 ******** Week 357 almanac for PRN-23 ******** ID: 23 Health: 0 Eccentricity: 0.006017208099 Time of Applicability(s): 503808 Orbital Inclination(rad): 0.9874126474 Rate of Right Ascen(r/s): -7.943188008e-09 SQRT(A) (m 1/2): 5153.654785 Right Ascen at Week(rad): -1.820709736 Argument of Perigee(rad): -2.740825568 Mean Anom(rad): -0.4240794003 Af0(s): 0.0004838589111 Af1(s/s): 3.637979e-12 week: 357 ******** Week 357 almanac for PRN-24 ******** ID: 24 Health: 0 Eccentricity: 0.01786231995 Time of Applicability(s): 503808 Orbital Inclination(rad): 0.9353052375 Rate of Right Ascen(r/s): -7.920329913e-09 SQRT(A) (m 1/2): 5153.59668 Right Ascen at Week(rad): 0.1852937189 Argument of Perigee(rad): 1.133217821 Mean Anom(rad): 0.911591303 Af0(s): -9.722398682e-05 Af1(s/s): 1.455192e-11 week: 357 ******** Week 357 almanac for PRN-25 ******** ID: 25 Health: 0 Eccentricity: 0.01295757294 Time of Applicability(s): 503808 Orbital Inclination(rad): 0.9471816044 Rate of Right Ascen(r/s): -8.023191341e-09 SQRT(A) (m 1/2): 5153.666504 Right Ascen at Week(rad): 1.317511232 Argument of Perigee(rad): 1.155189774 Mean Anom(rad): -0.8548624764 Af0(s): 0.0003504585571 Af1(s/s): -3.637979e-12 week: 357 ******** Week 357 almanac for PRN-26 ******** ID: 26 Health: 0 Eccentricity: 0.01100111008 Time of Applicability(s): 503808 Orbital Inclination(rad): 0.9279828761 Rate of Right Ascen(r/s): -8.240343243e-09 SQRT(A) (m 1/2): 5153.638672 Right Ascen at Week(rad): 1.243265963 Argument of Perigee(rad): 0.7077692233 Mean Anom(rad): -1.678480206 Af0(s): -0.0002577566162 Af1(s/s): -7.275958e-12 week: 357 ******** Week 357 almanac for PRN-27 ******** ID: 27 Health: 0 Eccentricity: 0.0143032074 Time of Applicability(s): 503808 Orbital Inclination(rad): 0.9527962137 Rate of Right Ascen(r/s): -7.771752296e-09 SQRT(A) (m 1/2): 5153.615234 Right Ascen at Week(rad): 2.373274259 Argument of Perigee(rad): 0.874665659 Mean Anom(rad): 2.864634596 Af0(s): -3.240799561e-05 Af1(s/s): -1.091394e-11 week: 357 ******** Week 357 almanac for PRN-28 ******** ID: 28 Health: 0 Eccentricity: 0.0004000663757 Time of Applicability(s): 503808 Orbital Inclination(rad): 0.9622337908 Rate of Right Ascen(r/s): -7.646032773e-09 SQRT(A) (m 1/2): 5153.733887 Right Ascen at Week(rad): 0.2675204821 Argument of Perigee(rad): 0.1520168969 Mean Anom(rad): 0.1265781325 Af0(s): -0.0004710464477 Af1(s/s): 7.275958e-12 week: 357 ******** Week 357 almanac for PRN-29 ******** ID: 29 Health: 0 Eccentricity: 0.003313064575 Time of Applicability(s): 503808 Orbital Inclination(rad): 0.9621019644 Rate of Right Ascen(r/s): -7.668890868e-09 SQRT(A) (m 1/2): 5153.722168 Right Ascen at Week(rad): 2.462491945 Argument of Perigee(rad): 2.74259062 Mean Anom(rad): 2.73430203 Af0(s): -0.0002969476807 Af1(s/s): 7.275958e-12 week: 357 ******** Week 357 almanac for PRN-30 ******** ID: 30 Health: 0 Eccentricity: 0.007992267609 Time of Applicability(s): 503808 Orbital Inclination(rad): 0.9365336205 Rate of Right Ascen(r/s): -7.886042771e-09 SQRT(A) (m 1/2): 5153.712891 Right Ascen at Week(rad): 0.2846927529 Argument of Perigee(rad): -2.331387146 Mean Anom(rad): -0.2136779811 Af0(s): 9.496296387e-05 Af1(s/s): 1.091394e-11 week: 357 ******** Week 357 almanac for PRN-31 ******** ID: 31 Health: 0 Eccentricity: 0.01082324982 Time of Applicability(s): 503808 Orbital Inclination(rad): 0.9550252796 Rate of Right Ascen(r/s): -7.748894201e-09 SQRT(A) (m 1/2): 5153.719238 Right Ascen at Week(rad): 0.3175834582 Argument of Perigee(rad): 0.937088865 Mean Anom(rad): -1.161466886 Af0(s): -0.0001318930054 Af1(s/s): 3.637979e-12 week: 357 ******** Week 357 almanac for PRN-32 ******** ID: 32 Health: 0 Eccentricity: 0.009305477142 Time of Applicability(s): 503808 Orbital Inclination(rad): 0.9677345501 Rate of Right Ascen(r/s): -7.726036106e-09 SQRT(A) (m 1/2): 5153.682617 Right Ascen at Week(rad): -0.7621959553 Argument of Perigee(rad): -2.009818184 Mean Anom(rad): -2.828592039 Af0(s): -7.461375732e-05 Af1(s/s): 1.818989e-11 week: 357